Time,TemperatureF,DewpointF,PressureIn,WindDirection,WindDirectionDegrees,WindSpeedMPH,WindSpeedGustMPH,Humidity,HourlyPrecipIn,Conditions,Clouds,dailyrainin,SoftwareType,DateUTC
2013-09-12 00:00:00,77.0,70.7,29.95,WSW,258,0.0,12.0,81,0.00,,,0.00,Wunderground v.1.13,2013-09-12 05:00:00,
2013-09-12 00:05:00,77.0,71.1,29.95,WSW,258,0.0,12.0,82,0.00,,,0.00,Wunderground v.1.13,2013-09-12 05:05:00,
2013-09-12 00:11:00,77.0,71.1,29.94,WSW,258,0.0,12.0,82,0.00,,,0.00,Wunderground v.1.13,2013-09-12 05:11:00,
2013-09-12 00:16:00,77.0,71.1,29.94,WSW,258,0.0,12.0,82,0.00,,,0.00,Wunderground v.1.13,2013-09-12 05:16:00,
2013-09-12 00:21:00,77.0,71.1,29.94,WSW,258,0.0,12.0,82,0.00,,,0.00,Wunderground v.1.13,2013-09-12 05:21:00,
2013-09-12 00:27:00,77.0,71.1,29.94,WSW,258,0.0,12.0,82,0.00,,,0.00,Wunderground v.1.13,2013-09-12 05:27:00,
2013-09-12 00:32:00,76.8,70.9,29.94,WSW,258,0.0,12.0,82,0.00,,,0.00,Wunderground v.1.13,2013-09-12 05:32:00,
2013-09-12 00:37:00,76.7,70.8,29.93,WSW,258,0.0,12.0,82,0.00,,,0.00,Wunderground v.1.13,2013-09-12 05:37:00,
2013-09-12 00:42:00,76.7,70.8,29.93,WSW,258,0.0,12.0,82,0.00,,,0.00,Wunderground v.1.13,2013-09-12 05:42:00,
2013-09-12 00:48:00,76.5,70.6,29.93,WSW,258,0.0,12.0,82,0.00,,,0.00,Wunderground v.1.13,2013-09-12 05:48:00,
2013-09-12 00:53:00,76.5,70.6,29.93,WSW,258,0.0,12.0,82,0.00,,,0.00,Wunderground v.1.13,2013-09-12 05:53:00,
2013-09-12 00:58:00,76.3,70.4,29.93,WSW,258,0.0,12.0,82,0.00,,,0.00,Wunderground v.1.13,2013-09-12 05:58:00,
2013-09-12 01:03:00,76.1,70.6,29.93,WSW,258,0.0,12.0,83,0.00,,,0.00,Wunderground v.1.13,2013-09-12 06:03:00,
2013-09-12 01:09:00,76.1,70.6,29.93,WSW,258,0.0,12.0,83,0.00,,,0.00,Wunderground v.1.13,2013-09-12 06:09:00,
2013-09-12 01:14:00,76.1,70.6,29.93,WSW,258,0.0,12.0,83,0.00,,,0.00,Wunderground v.1.13,2013-09-12 06:14:00,
2013-09-12 01:19:00,76.3,71.1,29.93,WSW,258,0.0,12.0,84,0.00,,,0.00,Wunderground v.1.13,2013-09-12 06:19:00,
2013-09-12 01:25:00,76.3,71.1,29.93,WSW,253,0.0,12.0,84,0.00,,,0.00,Wunderground v.1.13,2013-09-12 06:25:00,
2013-09-12 01:30:00,76.5,71.3,29.93,WSW,253,0.0,12.0,84,0.00,,,0.00,Wunderground v.1.13,2013-09-12 06:30:00,
2013-09-12 01:35:00,76.5,70.9,29.93,West,278,0.0,12.0,83,0.00,,,0.00,Wunderground v.1.13,2013-09-12 06:35:00,
2013-09-12 01:40:00,76.5,71.3,29.93,West,278,0.0,12.0,84,0.00,,,0.00,Wunderground v.1.13,2013-09-12 06:40:00,
2013-09-12 01:46:00,76.5,71.3,29.93,West,278,0.0,12.0,84,0.00,,,0.00,Wunderground v.1.13,2013-09-12 06:46:00,
2013-09-12 01:52:00,76.5,70.9,29.93,West,278,0.0,12.0,83,0.00,,,0.00,Wunderground v.1.13,2013-09-12 06:52:00,
2013-09-12 01:57:00,76.3,70.8,29.93,West,278,0.0,12.0,83,0.00,,,0.00,Wunderground v.1.13,2013-09-12 06:57:00,
2013-09-12 02:03:00,76.3,71.1,29.93,West,278,0.0,12.0,84,0.00,,,0.00,Wunderground v.1.13,2013-09-12 07:03:00,
2013-09-12 02:08:00,76.3,71.1,29.93,West,278,0.0,12.0,84,0.00,,,0.00,Wunderground v.1.13,2013-09-12 07:08:00,
2013-09-12 02:13:00,76.3,71.1,29.93,West,278,0.0,12.0,84,0.00,,,0.00,Wunderground v.1.13,2013-09-12 07:13:00,
2013-09-12 02:18:00,76.3,71.1,29.93,West,278,0.0,12.0,84,0.00,,,0.00,Wunderground v.1.13,2013-09-12 07:18:00,
2013-09-12 02:24:00,76.3,71.1,29.93,West,278,0.0,12.0,84,0.00,,,0.00,Wunderground v.1.13,2013-09-12 07:24:00,
2013-09-12 02:29:00,76.5,71.3,29.93,West,278,0.0,12.0,84,0.00,,,0.00,Wunderground v.1.13,2013-09-12 07:29:00,
2013-09-12 02:34:00,76.5,71.3,29.93,West,278,0.0,12.0,84,0.00,,,0.00,Wunderground v.1.13,2013-09-12 07:34:00,
2013-09-12 02:40:00,76.3,71.1,29.92,West,278,0.0,12.0,84,0.00,,,0.00,Wunderground v.1.13,2013-09-12 07:40:00,
2013-09-12 02:45:00,76.3,71.1,29.92,West,278,0.0,12.0,84,0.00,,,0.00,Wunderground v.1.13,2013-09-12 07:45:00,
2013-09-12 02:50:00,76.0,70.8,29.92,West,278,0.0,12.0,84,0.00,,,0.00,Wunderground v.1.13,2013-09-12 07:50:00,
2013-09-12 02:56:00,75.8,70.6,29.92,West,278,0.0,12.0,84,0.00,,,0.00,Wunderground v.1.13,2013-09-12 07:56:00,
2013-09-12 03:01:00,75.8,70.6,29.92,West,278,0.0,12.0,84,0.00,,,0.00,Wunderground v.1.13,2013-09-12 08:01:00,
2013-09-12 03:06:00,75.6,70.4,29.92,West,278,0.0,12.0,84,0.00,,,0.00,Wunderground v.1.13,2013-09-12 08:06:00,
2013-09-12 03:11:00,75.6,70.4,29.92,West,278,0.0,12.0,84,0.00,,,0.00,Wunderground v.1.13,2013-09-12 08:11:00,
2013-09-12 03:17:00,75.6,70.4,29.92,West,278,0.0,12.0,84,0.00,,,0.00,Wunderground v.1.13,2013-09-12 08:17:00,
2013-09-12 03:22:00,75.6,70.4,29.92,West,278,0.0,12.0,84,0.00,,,0.00,Wunderground v.1.13,2013-09-12 08:22:00,
2013-09-12 03:27:00,75.4,69.9,29.92,West,278,0.0,12.0,83,0.00,,,0.00,Wunderground v.1.13,2013-09-12 08:27:00,
2013-09-12 03:33:00,75.4,69.9,29.92,West,278,0.0,12.0,83,0.00,,,0.00,Wunderground v.1.13,2013-09-12 08:33:00,
2013-09-12 03:38:00,75.4,69.9,29.92,West,278,0.0,12.0,83,0.00,,,0.00,Wunderground v.1.13,2013-09-12 08:38:00,
2013-09-12 03:43:00,75.4,69.9,29.92,ENE,65,0.0,12.0,83,0.00,,,0.00,Wunderground v.1.13,2013-09-12 08:43:00,
2013-09-12 03:48:00,75.6,70.4,29.92,ENE,65,0.0,12.0,84,0.00,,,0.00,Wunderground v.1.13,2013-09-12 08:48:00,
2013-09-12 03:54:00,75.8,70.6,29.92,ENE,61,0.0,12.0,84,0.00,,,0.00,Wunderground v.1.13,2013-09-12 08:54:00,
2013-09-12 04:00:00,76.0,70.8,29.92,NE,54,0.0,12.0,84,0.00,,,0.00,Wunderground v.1.13,2013-09-12 09:00:00,
2013-09-12 04:05:00,76.0,70.8,29.92,NE,54,1.0,1.0,84,0.00,,,0.00,Wunderground v.1.13,2013-09-12 09:05:00,
2013-09-12 04:11:00,75.8,70.6,29.92,NE,54,0.0,12.0,84,0.00,,,0.00,Wunderground v.1.13,2013-09-12 09:11:00,
2013-09-12 04:16:00,75.8,70.6,29.92,NE,54,0.0,12.0,84,0.00,,,0.00,Wunderground v.1.13,2013-09-12 09:16:00,
2013-09-12 04:21:00,75.8,70.6,29.92,NE,54,0.0,12.0,84,0.00,,,0.00,Wunderground v.1.13,2013-09-12 09:21:00,
2013-09-12 04:26:00,75.8,70.6,29.92,NE,52,0.0,12.0,84,0.00,,,0.00,Wunderground v.1.13,2013-09-12 09:26:00,
2013-09-12 04:32:00,75.8,70.6,29.92,NE,52,1.0,12.0,84,0.00,,,0.00,Wunderground v.1.13,2013-09-12 09:32:00,
2013-09-12 04:37:00,75.8,71.0,29.93,NE,52,0.0,12.0,85,0.00,,,0.00,Wunderground v.1.13,2013-09-12 09:37:00,
2013-09-12 04:42:00,75.8,71.0,29.93,NE,52,0.0,12.0,85,0.00,,,0.00,Wunderground v.1.13,2013-09-12 09:42:00,
2013-09-12 04:48:00,75.6,70.8,29.93,NE,52,0.0,12.0,85,0.00,,,0.00,Wunderground v.1.13,2013-09-12 09:48:00,
2013-09-12 04:53:00,75.4,70.6,29.92,NE,52,0.0,12.0,85,0.00,,,0.00,Wunderground v.1.13,2013-09-12 09:53:00,
2013-09-12 04:58:00,75.4,70.6,29.92,NE,52,0.0,12.0,85,0.00,,,0.00,Wunderground v.1.13,2013-09-12 09:58:00,
2013-09-12 05:04:00,75.3,70.5,29.92,NE,52,0.0,12.0,85,0.00,,,0.00,Wunderground v.1.13,2013-09-12 10:04:00,
2013-09-12 05:09:00,75.3,70.5,29.92,NE,52,0.0,12.0,85,0.00,,,0.00,Wunderground v.1.13,2013-09-12 10:09:00,
2013-09-12 05:14:00,75.1,70.3,29.92,NE,52,0.0,12.0,85,0.00,,,0.00,Wunderground v.1.13,2013-09-12 10:14:00,
2013-09-12 05:19:00,74.9,70.1,29.92,NE,52,0.0,12.0,85,0.00,,,0.00,Wunderground v.1.13,2013-09-12 10:19:00,
2013-09-12 05:25:00,74.9,70.1,29.92,NE,52,0.0,12.0,85,0.00,,,0.00,Wunderground v.1.13,2013-09-12 10:25:00,
2013-09-12 05:30:00,74.9,70.1,29.92,NE,52,0.0,12.0,85,0.00,,,0.00,Wunderground v.1.13,2013-09-12 10:30:00,
2013-09-12 05:35:00,74.7,69.9,29.92,NE,52,0.0,12.0,85,0.00,,,0.00,Wunderground v.1.13,2013-09-12 10:35:00,
2013-09-12 05:41:00,74.7,69.9,29.92,NE,52,0.0,12.0,85,0.00,,,0.00,Wunderground v.1.13,2013-09-12 10:41:00,
2013-09-12 05:46:00,74.6,69.8,29.92,NE,52,0.0,12.0,85,0.00,,,0.00,Wunderground v.1.13,2013-09-12 10:46:00,
2013-09-12 05:51:00,74.6,69.8,29.92,NE,52,0.0,12.0,85,0.00,,,0.00,Wunderground v.1.13,2013-09-12 10:51:00,
2013-09-12 05:56:00,74.6,69.8,29.92,NE,52,0.0,12.0,85,0.00,,,0.00,Wunderground v.1.13,2013-09-12 10:56:00,
2013-09-12 06:02:00,74.6,69.8,29.92,NE,52,0.0,12.0,85,0.00,,,0.00,Wunderground v.1.13,2013-09-12 11:02:00,
2013-09-12 06:08:00,74.6,69.8,29.93,NE,52,0.0,12.0,85,0.00,,,0.00,Wunderground v.1.13,2013-09-12 11:08:00,
2013-09-12 06:13:00,74.6,69.8,29.93,NE,52,0.0,12.0,85,0.00,,,0.00,Wunderground v.1.13,2013-09-12 11:13:00,
2013-09-12 06:19:00,74.4,69.6,29.93,NE,55,0.0,12.0,85,0.00,,,0.00,Wunderground v.1.13,2013-09-12 11:19:00,
2013-09-12 06:24:00,74.4,69.6,29.93,NE,55,0.0,12.0,85,0.00,,,0.00,Wunderground v.1.13,2013-09-12 11:24:00,
2013-09-12 06:29:00,74.2,69.4,29.93,NE,55,0.0,12.0,85,0.00,,,0.00,Wunderground v.1.13,2013-09-12 11:29:00,
2013-09-12 06:34:00,74.2,69.4,29.93,NE,55,0.0,12.0,85,0.00,,,0.00,Wunderground v.1.13,2013-09-12 11:34:00,
2013-09-12 06:40:00,74.2,69.4,29.93,NE,55,0.0,12.0,85,0.00,,,0.00,Wunderground v.1.13,2013-09-12 11:40:00,
2013-09-12 06:45:00,74.2,69.4,29.93,NE,55,0.0,12.0,85,0.00,,,0.00,Wunderground v.1.13,2013-09-12 11:45:00,
2013-09-12 06:50:00,74.0,69.2,29.93,NE,51,0.0,12.0,85,0.00,,,0.00,Wunderground v.1.13,2013-09-12 11:50:00,
2013-09-12 06:56:00,74.0,69.2,29.93,NE,51,0.0,12.0,85,0.00,,,0.00,Wunderground v.1.13,2013-09-12 11:56:00,
2013-09-12 07:01:00,74.0,69.5,29.93,NE,51,0.0,12.0,86,0.00,,,0.00,Wunderground v.1.13,2013-09-12 12:01:00,
2013-09-12 07:06:00,73.9,69.4,29.93,NE,54,0.0,12.0,86,0.00,,,0.00,Wunderground v.1.13,2013-09-12 12:06:00,
2013-09-12 07:11:00,73.9,69.1,29.93,NE,52,1.0,12.0,85,0.00,,,0.00,Wunderground v.1.13,2013-09-12 12:11:00,
2013-09-12 07:17:00,73.9,69.1,29.93,NE,52,1.0,12.0,85,0.00,,,0.00,Wunderground v.1.13,2013-09-12 12:17:00,
2013-09-12 07:23:00,74.0,69.5,29.94,NE,52,0.0,12.0,86,0.00,,,0.00,Wunderground v.1.13,2013-09-12 12:23:00,
2013-09-12 07:28:00,74.0,69.5,29.94,East,92,0.0,12.0,86,0.00,,,0.00,Wunderground v.1.13,2013-09-12 12:28:00,
2013-09-12 07:34:00,74.0,69.5,29.94,East,92,0.0,12.0,86,0.00,,,0.00,Wunderground v.1.13,2013-09-12 12:34:00,
2013-09-12 07:39:00,74.2,69.7,29.94,ENE,72,0.0,12.0,86,0.00,,,0.00,Wunderground v.1.13,2013-09-12 12:39:00,
2013-09-12 07:44:00,74.2,69.7,29.94,NE,48,0.0,12.0,86,0.00,,,0.00,Wunderground v.1.13,2013-09-12 12:44:00,
2013-09-12 07:49:00,74.4,69.9,29.94,NE,51,1.0,12.0,86,0.00,,,0.00,Wunderground v.1.13,2013-09-12 12:49:00,
2013-09-12 07:55:00,74.6,70.1,29.94,NE,51,0.0,12.0,86,0.00,,,0.00,Wunderground v.1.13,2013-09-12 12:55:00,
2013-09-12 08:00:00,74.7,70.2,29.94,ENE,62,0.0,12.0,86,0.00,,,0.00,Wunderground v.1.13,2013-09-12 13:00:00,
2013-09-12 08:05:00,74.9,70.1,29.94,NE,38,1.0,1.0,85,0.00,,,0.00,Wunderground v.1.13,2013-09-12 13:05:00,
2013-09-12 08:11:00,75.1,70.3,29.94,NE,41,1.0,12.0,85,0.00,,,0.00,Wunderground v.1.13,2013-09-12 13:11:00,
2013-09-12 08:16:00,75.3,70.5,29.94,East,89,0.0,12.0,85,0.00,,,0.00,Wunderground v.1.13,2013-09-12 13:16:00,
2013-09-12 08:21:00,75.6,70.8,29.94,ENE,71,0.0,12.0,85,0.00,,,0.00,Wunderground v.1.13,2013-09-12 13:21:00,
2013-09-12 08:27:00,75.8,71.0,29.94,NNE,30,0.0,12.0,85,0.00,,,0.00,Wunderground v.1.13,2013-09-12 13:27:00,
2013-09-12 08:32:00,76.0,71.2,29.94,ENE,62,1.0,12.0,85,0.00,,,0.00,Wunderground v.1.13,2013-09-12 13:32:00,
2013-09-12 08:37:00,76.1,71.3,29.94,NNE,23,1.0,12.0,85,0.00,,,0.00,Wunderground v.1.13,2013-09-12 13:37:00,
2013-09-12 08:42:00,76.5,71.7,29.94,NNE,28,1.0,12.0,85,0.00,,,0.00,Wunderground v.1.13,2013-09-12 13:42:00,
2013-09-12 08:48:00,76.8,71.9,29.94,NNE,28,1.0,12.0,85,0.00,,,0.00,Wunderground v.1.13,2013-09-12 13:48:00,
2013-09-12 08:53:00,77.2,72.3,29.94,ENE,66,1.0,12.0,85,0.00,,,0.00,Wunderground v.1.13,2013-09-12 13:53:00,
2013-09-12 08:58:00,77.4,72.5,29.94,NE,40,0.0,12.0,85,0.00,,,0.00,Wunderground v.1.13,2013-09-12 13:58:00,
2013-09-12 09:04:00,77.7,72.8,29.94,NE,40,0.0,12.0,85,0.00,,,0.00,Wunderground v.1.13,2013-09-12 14:04:00,
2013-09-12 09:09:00,78.3,73.1,29.94,SE,131,0.0,12.0,84,0.00,,,0.00,Wunderground v.1.13,2013-09-12 14:09:00,
2013-09-12 09:14:00,78.5,73.3,29.94,NE,34,0.0,12.0,84,0.00,,,0.00,Wunderground v.1.13,2013-09-12 14:14:00,
2013-09-12 09:19:00,78.6,73.0,29.94,NE,34,0.0,12.0,83,0.00,,,0.00,Wunderground v.1.13,2013-09-12 14:19:00,
2013-09-12 09:25:00,79.2,73.9,29.94,NE,35,0.0,12.0,84,0.00,,,0.00,Wunderground v.1.13,2013-09-12 14:25:00,
2013-09-12 09:31:00,79.8,74.2,29.94,NE,45,0.0,12.0,83,0.00,,,0.00,Wunderground v.1.13,2013-09-12 14:31:00,
2013-09-12 09:36:00,79.9,73.9,29.94,NNE,23,1.0,12.0,82,0.00,,,0.00,Wunderground v.1.13,2013-09-12 14:36:00,
2013-09-12 09:42:00,80.3,74.3,29.94,NNE,23,1.0,12.0,82,0.00,,,0.00,Wunderground v.1.13,2013-09-12 14:42:00,
2013-09-12 09:47:00,80.5,74.5,29.94,NE,44,1.0,12.0,82,0.00,,,0.00,Wunderground v.1.13,2013-09-12 14:47:00,
2013-09-12 09:52:00,80.9,74.5,29.94,NNE,31,1.0,12.0,81,0.00,,,0.00,Wunderground v.1.13,2013-09-12 14:52:00,
2013-09-12 09:57:00,80.9,74.5,29.94,ENE,59,1.0,12.0,81,0.00,,,0.00,Wunderground v.1.13,2013-09-12 14:57:00,
2013-09-12 10:03:00,81.2,74.4,29.94,NE,47,1.0,12.0,80,0.00,,,0.00,Wunderground v.1.13,2013-09-12 15:03:00,
2013-09-12 10:08:00,81.6,74.8,29.95,NE,47,0.0,12.0,80,0.00,,,0.00,Wunderground v.1.13,2013-09-12 15:08:00,
2013-09-12 10:13:00,82.2,75.4,29.95,NE,48,0.0,12.0,80,0.00,,,0.00,Wunderground v.1.13,2013-09-12 15:13:00,
2013-09-12 10:19:00,82.4,75.2,29.95,NE,48,0.0,12.0,79,0.00,,,0.00,Wunderground v.1.13,2013-09-12 15:19:00,
2013-09-12 10:24:00,82.8,75.2,29.95,ENE,72,0.0,12.0,78,0.00,,,0.00,Wunderground v.1.13,2013-09-12 15:24:00,
2013-09-12 10:29:00,82.8,74.5,29.95,NNE,25,0.0,12.0,76,0.00,,,0.00,Wunderground v.1.13,2013-09-12 15:29:00,
2013-09-12 10:35:00,83.4,75.0,29.95,NNE,25,0.0,12.0,76,0.00,,,0.00,Wunderground v.1.13,2013-09-12 15:35:00,
2013-09-12 10:40:00,83.8,75.0,29.94,NNE,25,0.0,12.0,75,0.00,,,0.00,Wunderground v.1.13,2013-09-12 15:40:00,
2013-09-12 10:45:00,84.0,75.2,29.94,East,80,0.0,12.0,75,0.00,,,0.00,Wunderground v.1.13,2013-09-12 15:45:00,
2013-09-12 10:51:00,84.3,74.7,29.94,ENE,73,0.0,12.0,73,0.00,,,0.00,Wunderground v.1.13,2013-09-12 15:51:00,
2013-09-12 10:56:00,84.1,74.5,29.94,NNE,25,1.0,12.0,73,0.00,,,0.00,Wunderground v.1.13,2013-09-12 15:56:00,
2013-09-12 11:01:00,84.1,73.7,29.94,NE,40,2.0,12.0,71,0.00,,,0.00,Wunderground v.1.13,2013-09-12 16:01:00,
2013-09-12 11:07:00,84.3,74.3,29.94,NE,48,1.0,12.0,72,0.00,,,0.00,Wunderground v.1.13,2013-09-12 16:07:00,
2013-09-12 11:12:00,84.7,74.3,29.94,NE,52,0.0,12.0,71,0.00,,,0.00,Wunderground v.1.13,2013-09-12 16:12:00,
2013-09-12 11:17:00,84.7,73.4,29.94,NE,56,0.0,12.0,69,0.00,,,0.00,Wunderground v.1.13,2013-09-12 16:17:00,
2013-09-12 11:22:00,85.1,73.8,29.94,ENE,68,0.0,12.0,69,0.00,,,0.00,Wunderground v.1.13,2013-09-12 16:22:00,
2013-09-12 11:28:00,85.3,74.0,29.94,East,85,0.0,12.0,69,0.00,,,0.00,Wunderground v.1.13,2013-09-12 16:28:00,
2013-09-12 11:33:00,85.3,74.0,29.94,ENE,71,0.0,12.0,69,0.00,,,0.00,Wunderground v.1.13,2013-09-12 16:33:00,
2013-09-12 11:38:00,85.7,73.9,29.93,ENE,65,0.0,12.0,68,0.00,,,0.00,Wunderground v.1.13,2013-09-12 16:38:00,
2013-09-12 11:43:00,86.1,74.3,29.93,ESE,102,0.0,12.0,68,0.00,,,0.00,Wunderground v.1.13,2013-09-12 16:43:00,
2013-09-12 11:49:00,86.3,74.0,29.93,East,100,0.0,12.0,67,0.00,,,0.00,Wunderground v.1.13,2013-09-12 16:49:00,
2013-09-12 11:54:00,86.3,72.7,29.93,ENE,65,0.0,12.0,64,0.00,,,0.00,Wunderground v.1.13,2013-09-12 16:54:00,
2013-09-12 11:59:00,86.5,73.3,29.93,ESE,103,1.0,12.0,65,0.00,,,0.00,Wunderground v.1.13,2013-09-12 16:59:00,
2013-09-12 12:05:00,86.7,73.1,29.93,NE,54,0.0,12.0,64,0.00,,,0.00,Wunderground v.1.13,2013-09-12 17:05:00,
2013-09-12 12:10:00,87.0,73.3,29.92,NE,54,0.0,12.0,64,0.00,,,0.00,Wunderground v.1.13,2013-09-12 17:10:00,
2013-09-12 12:15:00,87.6,73.9,29.92,NE,54,0.0,12.0,64,0.00,,,0.00,Wunderground v.1.13,2013-09-12 17:15:00,
2013-09-12 12:21:00,88.0,74.3,29.92,ENE,68,0.0,12.0,64,0.00,,,0.00,Wunderground v.1.13,2013-09-12 17:21:00,
2013-09-12 12:26:00,88.0,73.3,29.92,ENE,76,0.0,12.0,62,0.00,,,0.00,Wunderground v.1.13,2013-09-12 17:26:00,
2013-09-12 12:31:00,88.2,73.5,29.92,ENE,64,0.0,12.0,62,0.00,,,0.00,Wunderground v.1.13,2013-09-12 17:31:00,
2013-09-12 12:36:00,88.6,73.9,29.91,ENE,64,0.0,12.0,62,0.00,,,0.00,Wunderground v.1.13,2013-09-12 17:36:00,
2013-09-12 12:42:00,88.8,73.6,29.91,ESE,110,0.0,12.0,61,0.00,,,0.00,Wunderground v.1.13,2013-09-12 17:42:00,
2013-09-12 12:47:00,88.8,73.1,29.91,East,99,0.0,12.0,60,0.00,,,0.00,Wunderground v.1.13,2013-09-12 17:47:00,
2013-09-12 12:52:00,89.0,72.8,29.91,ENE,76,0.0,12.0,59,0.00,,,0.00,Wunderground v.1.13,2013-09-12 17:52:00,
2013-09-12 12:58:00,89.0,72.8,29.91,ENE,76,0.0,12.0,59,0.00,,,0.00,Wunderground v.1.13,2013-09-12 17:58:00,
2013-09-12 13:03:00,89.3,73.6,29.91,ENE,76,0.0,12.0,60,0.00,,,0.00,Wunderground v.1.13,2013-09-12 18:03:00,
2013-09-12 13:08:00,89.3,72.1,29.90,NE,47,0.0,12.0,57,0.00,,,0.00,Wunderground v.1.13,2013-09-12 18:08:00,
2013-09-12 13:13:00,88.8,71.6,29.90,NNE,32,1.0,12.0,57,0.00,,,0.00,Wunderground v.1.13,2013-09-12 18:13:00,
2013-09-12 13:19:00,88.8,72.6,29.90,NE,51,2.0,12.0,59,0.00,,,0.00,Wunderground v.1.13,2013-09-12 18:19:00,
2013-09-12 13:25:00,88.8,71.1,29.90,NE,49,0.0,12.0,56,0.00,,,0.00,Wunderground v.1.13,2013-09-12 18:25:00,
2013-09-12 13:30:00,88.8,71.6,29.90,NNE,31,0.0,12.0,57,0.00,,,0.00,Wunderground v.1.13,2013-09-12 18:30:00,
2013-09-12 13:36:00,89.0,72.3,29.90,North,0,0.0,12.0,58,0.00,,,0.00,Wunderground v.1.13,2013-09-12 18:36:00,
2013-09-12 13:41:00,89.3,71.5,29.89,ESE,104,0.0,12.0,56,0.00,,,0.00,Wunderground v.1.13,2013-09-12 18:41:00,
2013-09-12 13:46:00,89.5,71.7,29.89,North,349,0.0,12.0,56,0.00,,,0.00,Wunderground v.1.13,2013-09-12 18:46:00,
2013-09-12 13:51:00,89.7,71.9,29.88,ENE,78,0.0,12.0,56,0.00,,,0.00,Wunderground v.1.13,2013-09-12 18:51:00,
2013-09-12 13:57:00,89.9,72.1,29.88,WNW,299,0.0,12.0,56,0.00,,,0.00,Wunderground v.1.13,2013-09-12 18:57:00,
2013-09-12 14:02:00,90.1,71.8,29.88,NNW,335,0.0,12.0,55,0.00,,,0.00,Wunderground v.1.13,2013-09-12 19:02:00,
2013-09-12 14:07:00,90.3,71.9,29.88,WNW,289,0.0,12.0,55,0.00,,,0.00,Wunderground v.1.13,2013-09-12 19:07:00,
2013-09-12 14:13:00,90.5,72.7,29.88,SW,233,0.0,12.0,56,0.00,,,0.00,Wunderground v.1.13,2013-09-12 19:13:00,
2013-09-12 14:18:00,90.7,72.3,29.88,SSW,199,0.0,12.0,55,0.00,,,0.00,Wunderground v.1.13,2013-09-12 19:18:00,
2013-09-12 14:23:00,90.7,72.3,29.87,SE,131,0.0,12.0,55,0.00,,,0.00,Wunderground v.1.13,2013-09-12 19:23:00,
2013-09-12 14:28:00,90.7,71.2,29.87,WSW,246,0.0,12.0,53,0.00,,,0.00,Wunderground v.1.13,2013-09-12 19:28:00,
2013-09-12 14:34:00,90.7,71.2,29.87,SW,224,0.0,12.0,53,0.00,,,0.00,Wunderground v.1.13,2013-09-12 19:34:00,
2013-09-12 14:40:00,90.7,71.8,29.86,SW,224,0.0,12.0,54,0.00,,,0.00,Wunderground v.1.13,2013-09-12 19:40:00,
2013-09-12 14:45:00,91.2,71.7,29.86,SW,223,0.0,12.0,53,0.00,,,0.00,Wunderground v.1.13,2013-09-12 19:45:00,
2013-09-12 14:51:00,91.4,71.9,29.86,SW,223,0.0,12.0,53,0.00,,,0.00,Wunderground v.1.13,2013-09-12 19:51:00,
2013-09-12 14:56:00,91.4,71.9,29.85,WSW,250,0.0,12.0,53,0.00,,,0.00,Wunderground v.1.13,2013-09-12 19:56:00,
2013-09-12 15:01:00,91.6,72.0,29.85,WSW,253,0.0,12.0,53,0.00,,,0.00,Wunderground v.1.13,2013-09-12 20:01:00,
2013-09-12 15:07:00,91.8,71.7,29.84,WSW,243,0.0,12.0,52,0.00,,,0.00,Wunderground v.1.13,2013-09-12 20:07:00,
2013-09-12 15:12:00,91.8,71.1,29.84,WSW,240,0.0,12.0,51,0.00,,,0.00,Wunderground v.1.13,2013-09-12 20:12:00,
2013-09-12 15:17:00,92.1,71.4,29.84,WSW,239,0.0,12.0,51,0.00,,,0.00,Wunderground v.1.13,2013-09-12 20:17:00,
2013-09-12 15:23:00,92.3,71.6,29.84,SW,224,0.0,12.0,51,0.00,,,0.00,Wunderground v.1.13,2013-09-12 20:23:00,
2013-09-12 15:28:00,92.3,71.0,29.84,SW,219,0.0,12.0,50,0.00,,,0.00,Wunderground v.1.13,2013-09-12 20:28:00,
2013-09-12 15:33:00,92.3,71.6,29.84,SW,219,0.0,12.0,51,0.00,,,0.00,Wunderground v.1.13,2013-09-12 20:33:00,
2013-09-12 15:39:00,92.3,71.6,29.83,SW,217,0.0,12.0,51,0.00,,,0.00,Wunderground v.1.13,2013-09-12 20:39:00,
2013-09-12 15:44:00,92.5,72.3,29.83,SE,138,0.0,12.0,52,0.00,,,0.00,Wunderground v.1.13,2013-09-12 20:44:00,
2013-09-12 15:49:00,92.5,72.9,29.83,SE,138,0.0,12.0,53,0.00,,,0.00,Wunderground v.1.13,2013-09-12 20:49:00,
2013-09-12 15:55:00,92.3,71.6,29.83,ENE,73,0.0,12.0,51,0.00,,,0.00,Wunderground v.1.13,2013-09-12 20:55:00,
2013-09-12 16:00:00,92.3,72.1,29.83,ENE,73,0.0,12.0,52,0.00,,,0.00,Wunderground v.1.13,2013-09-12 21:00:00,
2013-09-12 16:05:00,92.1,71.9,29.83,East,93,0.0,12.0,52,0.00,,,0.00,Wunderground v.1.13,2013-09-12 21:05:00,
2013-09-12 16:11:00,91.8,72.2,29.83,SSE,168,0.0,12.0,53,0.00,,,0.00,Wunderground v.1.13,2013-09-12 21:11:00,
2013-09-12 16:16:00,92.1,73.1,29.83,SSE,162,0.0,12.0,54,0.00,,,0.00,Wunderground v.1.13,2013-09-12 21:16:00,
2013-09-12 16:21:00,92.1,73.1,29.82,NE,52,0.0,12.0,54,0.00,,,0.00,Wunderground v.1.13,2013-09-12 21:21:00,
2013-09-12 16:27:00,92.1,74.1,29.82,NE,54,0.0,12.0,56,0.00,,,0.00,Wunderground v.1.13,2013-09-12 21:27:00,
2013-09-12 16:32:00,91.8,73.3,29.82,South,169,0.0,12.0,55,0.00,,,0.00,Wunderground v.1.13,2013-09-12 21:32:00,
2013-09-12 16:37:00,92.1,73.6,29.82,South,169,0.0,12.0,55,0.00,,,0.00,Wunderground v.1.13,2013-09-12 21:37:00,
2013-09-12 16:43:00,92.3,73.8,29.82,WNW,288,0.0,12.0,55,0.00,,,0.00,Wunderground v.1.13,2013-09-12 21:43:00,
2013-09-12 16:48:00,92.3,74.3,29.82,WNW,289,0.0,12.0,56,0.00,,,0.00,Wunderground v.1.13,2013-09-12 21:48:00,
2013-09-12 16:53:00,92.3,73.2,29.82,NW,306,0.0,12.0,54,0.00,,,0.00,Wunderground v.1.13,2013-09-12 21:53:00,
2013-09-12 16:59:00,92.5,74.0,29.82,NW,306,0.0,12.0,55,0.00,,,0.00,Wunderground v.1.13,2013-09-12 21:59:00,
2013-09-12 17:04:00,92.1,73.6,29.82,NW,306,0.0,12.0,55,0.00,,,0.00,Wunderground v.1.13,2013-09-12 22:04:00,
2013-09-12 17:09:00,92.1,73.6,29.82,NW,308,0.0,12.0,55,0.00,,,0.00,Wunderground v.1.13,2013-09-12 22:09:00,
2013-09-12 17:15:00,91.8,73.9,29.82,NW,308,0.0,12.0,56,0.00,,,0.00,Wunderground v.1.13,2013-09-12 22:15:00,
2013-09-12 17:20:00,91.8,73.9,29.82,NW,308,0.0,12.0,56,0.00,,,0.00,Wunderground v.1.13,2013-09-12 22:20:00,
2013-09-12 17:25:00,91.8,73.9,29.82,NW,308,0.0,12.0,56,0.00,,,0.00,Wunderground v.1.13,2013-09-12 22:25:00,
2013-09-12 17:31:00,91.6,73.7,29.82,NW,308,0.0,12.0,56,0.00,,,0.00,Wunderground v.1.13,2013-09-12 22:31:00,
2013-09-12 17:36:00,91.4,73.5,29.82,NW,308,0.0,12.0,56,0.00,,,0.00,Wunderground v.1.13,2013-09-12 22:36:00,
2013-09-12 17:41:00,91.4,73.5,29.81,NW,308,0.0,12.0,56,0.00,,,0.00,Wunderground v.1.13,2013-09-12 22:41:00,
2013-09-12 17:46:00,91.0,73.7,29.81,NW,308,0.0,12.0,57,0.00,,,0.00,Wunderground v.1.13,2013-09-12 22:46:00,
2013-09-12 17:52:00,90.5,73.7,29.82,NW,308,0.0,12.0,58,0.00,,,0.00,Wunderground v.1.13,2013-09-12 22:52:00,
2013-09-12 17:57:00,90.1,73.3,29.82,NW,308,0.0,12.0,58,0.00,,,0.00,Wunderground v.1.13,2013-09-12 22:57:00,
2013-09-12 18:02:00,89.7,73.5,29.82,NW,308,0.0,12.0,59,0.00,,,0.00,Wunderground v.1.13,2013-09-12 23:02:00,
2013-09-12 18:08:00,89.5,73.3,29.82,NW,308,0.0,12.0,59,0.00,,,0.00,Wunderground v.1.13,2013-09-12 23:08:00,
2013-09-12 18:13:00,89.3,73.6,29.82,West,277,0.0,12.0,60,0.00,,,0.00,Wunderground v.1.13,2013-09-12 23:13:00,
2013-09-12 18:18:00,88.8,73.1,29.82,West,275,0.0,12.0,60,0.00,,,0.00,Wunderground v.1.13,2013-09-12 23:18:00,
2013-09-12 18:24:00,88.4,72.7,29.82,West,275,0.0,12.0,60,0.00,,,0.00,Wunderground v.1.13,2013-09-12 23:24:00,
2013-09-12 18:29:00,88.2,73.0,29.82,West,275,0.0,12.0,61,0.00,,,0.00,Wunderground v.1.13,2013-09-12 23:29:00,
2013-09-12 18:34:00,88.2,73.0,29.82,West,275,0.0,12.0,61,0.00,,,0.00,Wunderground v.1.13,2013-09-12 23:34:00,
2013-09-12 18:40:00,88.0,73.3,29.82,West,275,0.0,12.0,62,0.00,,,0.00,Wunderground v.1.13,2013-09-12 23:40:00,
2013-09-12 18:45:00,87.6,73.0,29.82,West,275,0.0,12.0,62,0.00,,,0.00,Wunderground v.1.13,2013-09-12 23:45:00,
2013-09-12 18:50:00,87.2,72.6,29.82,West,275,0.0,12.0,62,0.00,,,0.00,Wunderground v.1.13,2013-09-12 23:50:00,
2013-09-12 18:56:00,86.7,72.6,29.81,West,274,0.0,12.0,63,0.00,,,0.00,Wunderground v.1.13,2013-09-12 23:56:00,
2013-09-12 19:01:00,86.3,72.7,29.81,West,274,0.0,12.0,64,0.00,,,0.00,Wunderground v.1.13,2013-09-13 00:01:00,
2013-09-12 19:06:00,85.7,72.1,29.82,West,274,0.0,12.0,64,0.00,,,0.00,Wunderground v.1.13,2013-09-13 00:06:00,
2013-09-12 19:12:00,85.3,72.2,29.82,West,274,0.0,12.0,65,0.00,,,0.00,Wunderground v.1.13,2013-09-13 00:12:00,
2013-09-12 19:17:00,84.7,72.1,29.82,West,274,0.0,12.0,66,0.00,,,0.00,Wunderground v.1.13,2013-09-13 00:17:00,
2013-09-12 19:22:00,84.3,71.7,29.82,West,274,0.0,12.0,66,0.00,,,0.00,Wunderground v.1.13,2013-09-13 00:22:00,
2013-09-12 19:28:00,84.0,71.9,29.82,West,274,0.0,12.0,67,0.00,,,0.00,Wunderground v.1.13,2013-09-13 00:28:00,
2013-09-12 19:33:00,83.8,71.7,29.82,West,274,0.0,12.0,67,0.00,,,0.00,Wunderground v.1.13,2013-09-13 00:33:00,
2013-09-12 19:38:00,83.2,71.5,29.82,West,274,0.0,12.0,68,0.00,,,0.00,Wunderground v.1.13,2013-09-13 00:38:00,
2013-09-12 19:44:00,83.0,71.3,29.82,West,274,0.0,12.0,68,0.00,,,0.00,Wunderground v.1.13,2013-09-13 00:44:00,
2013-09-12 19:50:00,82.6,71.4,29.82,West,274,0.0,12.0,69,0.00,,,0.00,Wunderground v.1.13,2013-09-13 00:50:00,
2013-09-12 19:55:00,82.4,71.2,29.83,West,274,0.0,12.0,69,0.00,,,0.00,Wunderground v.1.13,2013-09-13 00:55:00,
2013-09-12 20:01:00,82.0,71.2,29.83,West,274,0.0,12.0,70,0.00,,,0.00,Wunderground v.1.13,2013-09-13 01:01:00,
2013-09-12 20:06:00,81.8,71.1,29.83,West,274,0.0,12.0,70,0.00,,,0.00,Wunderground v.1.13,2013-09-13 01:06:00,
2013-09-12 20:11:00,81.6,71.3,29.83,West,274,0.0,12.0,71,0.00,,,0.00,Wunderground v.1.13,2013-09-13 01:11:00,
2013-09-12 20:17:00,81.2,70.9,29.83,West,274,0.0,12.0,71,0.00,,,0.00,Wunderground v.1.13,2013-09-13 01:17:00,
2013-09-12 20:23:00,81.1,71.2,29.83,West,274,0.0,12.0,72,0.00,,,0.00,Wunderground v.1.13,2013-09-13 01:23:00,
2013-09-12 20:28:00,80.9,71.0,29.83,West,274,0.0,12.0,72,0.00,,,0.00,Wunderground v.1.13,2013-09-13 01:28:00,
2013-09-12 20:33:00,80.7,71.2,29.83,West,274,0.0,12.0,73,0.00,,,0.00,Wunderground v.1.13,2013-09-13 01:33:00,
2013-09-12 20:39:00,80.7,71.2,29.84,West,274,0.0,12.0,73,0.00,,,0.00,Wunderground v.1.13,2013-09-13 01:39:00,
2013-09-12 20:44:00,80.5,71.4,29.84,West,274,0.0,12.0,74,0.00,,,0.00,Wunderground v.1.13,2013-09-13 01:44:00,
2013-09-12 20:49:00,80.3,71.3,29.84,West,274,0.0,12.0,74,0.00,,,0.00,Wunderground v.1.13,2013-09-13 01:49:00,
2013-09-12 20:55:00,80.3,71.3,29.84,West,274,0.0,12.0,74,0.00,,,0.00,Wunderground v.1.13,2013-09-13 01:55:00,
2013-09-12 21:00:00,80.3,71.6,29.84,West,274,0.0,12.0,75,0.00,,,0.00,Wunderground v.1.13,2013-09-13 02:00:00,
2013-09-12 21:05:00,80.1,71.5,29.84,West,274,0.0,12.0,75,0.00,,,0.00,Wunderground v.1.13,2013-09-13 02:05:00,
2013-09-12 21:10:00,79.9,71.7,29.85,West,274,0.0,12.0,76,0.00,,,0.00,Wunderground v.1.13,2013-09-13 02:10:00,
2013-09-12 21:16:00,79.9,71.7,29.85,West,274,0.0,12.0,76,0.00,,,0.00,Wunderground v.1.13,2013-09-13 02:16:00,
2013-09-12 21:21:00,79.8,71.6,29.85,West,274,0.0,12.0,76,0.00,,,0.00,Wunderground v.1.13,2013-09-13 02:21:00,
2013-09-12 21:26:00,79.8,71.6,29.85,West,274,0.0,12.0,76,0.00,,,0.00,Wunderground v.1.13,2013-09-13 02:26:00,
2013-09-12 21:32:00,79.6,71.8,29.85,West,274,0.0,12.0,77,0.00,,,0.00,Wunderground v.1.13,2013-09-13 02:32:00,
2013-09-12 21:37:00,79.6,71.8,29.85,West,274,0.0,12.0,77,0.00,,,0.00,Wunderground v.1.13,2013-09-13 02:37:00,
2013-09-12 21:42:00,79.4,71.6,29.85,West,274,0.0,12.0,77,0.00,,,0.00,Wunderground v.1.13,2013-09-13 02:42:00,
2013-09-12 21:48:00,79.4,71.9,29.85,West,274,0.0,12.0,78,0.00,,,0.00,Wunderground v.1.13,2013-09-13 02:48:00,
2013-09-12 21:54:00,79.2,71.7,29.85,West,274,0.0,12.0,78,0.00,,,0.00,Wunderground v.1.13,2013-09-13 02:54:00,
2013-09-12 22:00:00,79.0,71.6,29.85,West,274,0.0,12.0,78,0.00,,,0.00,Wunderground v.1.13,2013-09-13 03:00:00,
2013-09-12 22:05:00,79.0,71.6,29.85,West,274,0.0,12.0,78,0.00,,,0.00,Wunderground v.1.13,2013-09-13 03:05:00,
2013-09-12 22:11:00,78.8,71.4,29.85,West,274,0.0,12.0,78,0.00,,,0.00,Wunderground v.1.13,2013-09-13 03:11:00,
2013-09-12 22:16:00,78.6,71.5,29.85,West,274,0.0,12.0,79,0.00,,,0.00,Wunderground v.1.13,2013-09-13 03:16:00,
2013-09-12 22:21:00,78.5,71.4,29.85,West,274,0.0,12.0,79,0.00,,,0.00,Wunderground v.1.13,2013-09-13 03:21:00,
2013-09-12 22:26:00,78.3,71.2,29.85,West,274,0.0,12.0,79,0.00,,,0.00,Wunderground v.1.13,2013-09-13 03:26:00,
2013-09-12 22:32:00,78.1,71.4,29.85,West,274,0.0,12.0,80,0.00,,,0.00,Wunderground v.1.13,2013-09-13 03:32:00,
2013-09-12 22:37:00,77.7,71.0,29.85,West,274,0.0,12.0,80,0.00,,,0.00,Wunderground v.1.13,2013-09-13 03:37:00,
2013-09-12 22:43:00,77.7,71.0,29.85,West,274,0.0,12.0,80,0.00,,,0.00,Wunderground v.1.13,2013-09-13 03:43:00,
2013-09-12 22:48:00,77.6,70.9,29.85,West,274,0.0,12.0,80,0.00,,,0.00,Wunderground v.1.13,2013-09-13 03:48:00,
2013-09-12 22:53:00,77.6,71.3,29.85,West,274,0.0,12.0,81,0.00,,,0.00,Wunderground v.1.13,2013-09-13 03:53:00,
2013-09-12 22:59:00,77.6,71.3,29.85,West,274,0.0,12.0,81,0.00,,,0.00,Wunderground v.1.13,2013-09-13 03:59:00,
2013-09-12 23:01:00,77.6,71.3,29.85,West,274,0.0,12.0,81,0.00,,,0.00,Wunderground v.1.13,2013-09-13 04:01:00,
2013-09-12 23:02:00,77.4,71.1,29.85,West,274,0.0,12.0,81,0.00,,,0.00,Wunderground v.1.13,2013-09-13 04:02:00,
2013-09-12 23:04:00,77.4,71.1,29.85,West,274,0.0,12.0,81,0.00,,,0.00,Wunderground v.1.13,2013-09-13 04:04:00,
2013-09-12 23:06:00,77.4,71.1,29.84,West,274,0.0,12.0,81,0.00,,,0.00,Wunderground v.1.13,2013-09-13 04:06:00,
2013-09-12 23:12:00,77.4,71.5,29.84,West,274,0.0,12.0,82,0.00,,,0.00,Wunderground v.1.13,2013-09-13 04:12:00,
2013-09-12 23:17:00,77.4,71.5,29.84,West,274,0.0,12.0,82,0.00,,,0.00,Wunderground v.1.13,2013-09-13 04:17:00,
2013-09-12 23:22:00,77.4,71.5,29.84,West,274,0.0,12.0,82,0.00,,,0.00,Wunderground v.1.13,2013-09-13 04:22:00,
2013-09-12 23:27:00,77.2,71.3,29.84,West,274,0.0,12.0,82,0.00,,,0.00,Wunderground v.1.13,2013-09-13 04:27:00,
2013-09-12 23:33:00,76.8,70.9,29.84,West,274,0.0,12.0,82,0.00,,,0.00,Wunderground v.1.13,2013-09-13 04:33:00,
2013-09-12 23:38:00,76.8,71.2,29.84,West,274,0.0,12.0,83,0.00,,,0.00,Wunderground v.1.13,2013-09-13 04:38:00,
2013-09-12 23:44:00,76.7,71.1,29.84,West,274,0.0,12.0,83,0.00,,,0.00,Wunderground v.1.13,2013-09-13 04:44:00,
2013-09-12 23:49:00,76.7,71.1,29.84,West,274,0.0,12.0,83,0.00,,,0.00,Wunderground v.1.13,2013-09-13 04:49:00,
2013-09-12 23:54:00,76.7,71.5,29.84,West,274,0.0,12.0,84,0.00,,,0.00,Wunderground v.1.13,2013-09-13 04:54:00,